STARLINK-31231, 59034

Orbit data source: Space-Track

STARLINK-31231, 59034 is a payload satellite owned by SpaceX/Seattle (US) in LEO that was launched on Sun, 25 Feb 2024 UTC via an FALCON 9 launch vehicle from the Air Force Eastern Test Range (AFETR). Payload-class satellites include a variety of spacecraft equipped with specific instruments for various scientific and technological missions. These include communications satellites like Starlink; space stations such as the ISS; scientific satellites like the Hubble; Earth observation satellites from companies like Planet Labs, Umbra, and HawkEye 360; GPS; miniature CubeSats for education and research; and military/defense satellites.

Loading next visibility...
Identifier
59034, 2024-038M
Orbit
LEO
Country
Flag of USUS
Related business
Manufacturer
SpaceX/Seattle
Mission
Operational Commercial Communications
Bus & Motor
STARLINK V2M, Unknown motor
Mass
730 kg wet, ~700 kg dry
Launch date (UTC)
2024-02-25 (2 years ago)
Launch vehicle
FALCON 9
Launch site
Air Force Eastern Test Range (AFETR)
Object type
Payload
Rocket body
Debris
Shape & HBR
Box + 2 Pan, 17.7 m
Radar Cross Section
33.884 m², Large (>1 m²)

Expand to show TLE details & history
Last TLE update: 18 hours ago

TLE from 18 hours ago
0 STARLINK-31231
1 59034U 24038M   25348.85562330 -.00000144  00000-0  43053-5 0  9992
2 59034  42.9994 142.6912 0001126 269.2496  90.8226 15.27564656101717
Epoch: 2025-12-14T20:32Z
TLE epoch observation values (Epoch: 2025-12-14T20:32:05.853Z)
Latitude
-0.00004°
Longitude
110.90422°
Altitude
482.882 km
Speed
7.626 km/s
True Right ascension
09h 30m 45s
True Declination
0° 00' 00"
Sunlit
Object was in full shadow at epoch
Visualization orbit readout
Latitude
Unknown
Longitude
Unknown
Altitude
Unknown
Speed
Unknown
Apparent Right ascension
Unknown
Apparent Declination
Unknown
Sunlit
N/A
Visualization observer readout
Local Sidereal Time
13:26:14
Azimuth
Unknown
Elevation
Unknown
Doppler factor
Unknown
Orbital elements
Apogee altitude
485.813 km
Perigee altitude
484.268 km
Semi-major axis
6,863.177 km
Eccentricity
0.00011
Inclination
42.9994°
RAAN
142.6912°
Arg. of periapsis
269.2496°
True anomaly
90.8355°
Mean anomaly
90.8226°
Eccentric anomaly
90.82905°
Mean motion
3.81729 °/min
Orbital period
94.31 mins
BSTAR
0.0000043053
Loading maneuver chart data...
Computing Atmospheric mass density...
Loading historical data...
Loading historical data...
Loading historical data...
Loading historical data...
Loading historical data...
Loading historical data...
Loading historical data...

Documentation

Showing up to 5 results
|